sat.trackr.live / text

‹ back to catalog

TRANSPORTER-16 OBJECT BP

NORAD 68477 · 2026-067BP

PAYLOAD ACTIVE UNKNOWN

§ Identity

Operator
Country
TBD
Launch date
2026-03-30
Launch site
AFWTR
Launch vehicle
Mass (kg)
RCS (m²)

External: N2YO · Heavens-Above · Gunter

§ Orbital elements

Epoch: 2026-05-25T03:04:06.462048Z

Period
96.54 min
Inclination
97.7508°
Eccentricity
0.0005843
Mean motion
14.91561092 rev/d
Perigee alt
589.0 km
Apogee alt
597.1 km
Semi-major
6,971.2 km
B*
6.7474e-4
RAAN
103.6524°
Arg perigee
126.1001°
Mean anomaly
234.0760°
Rev number
769

§ Raw data

TRANSPORTER-16 OBJECT BP1 68477U 26067BP  26145.12785257  .00006714  00000+0  67474-3 0  99962 68477  97.7508 103.6524 0005843 126.1001 234.0760 14.91561092  7694

JSON: /api/v1/satellites/68477 · /tle

For live sub-satellite position, see the globe view (requires WebGL).

§ Visibility from observer

Set your observer location to see the next 7 days of passes ≥ 10°. The values pass through the URL so the page stays shareable.

No JS? Fill the form by hand. The geolocation button needs JavaScript.